<?xml version="1.0" encoding="UTF-8" standalone="no" ?>
<gpx xmlns="http://www.topografix.com/GPX/1/1" xmlns:xsi="http://www.w3.org/2001/XMLSchema-instance" xsi:schemaLocation="http://www.topografix.com/GPX/1/1 http://www.topografix.com/GPX/1/1/gpx.xsd" version="1.1" creator="VisuGPX - https://www.visugpx.com">
  <metadata>
    <name>Saint Piat </name>
    <desc><![CDATA[projet otsi maintenon depart et arrivée Saint Piat ]]></desc>
  </metadata>
  <trk>
    <name><![CDATA[20180907191010-svS9g]]></name>
    <trkseg>
      <trkpt lat="48.58415" lon="1.59168">
        <ele>114</ele>
        <time>2010-01-01T00:00:00Z</time>
      </trkpt>
      <trkpt lat="48.58382" lon="1.58999">
        <ele>112</ele>
      </trkpt>
      <trkpt lat="48.58415" lon="1.59168">
        <ele>114</ele>
        <time>2010-01-01T00:00:00Z</time>
      </trkpt>
      <trkpt lat="48.58444" lon="1.59358">
        <ele>114</ele>
        <time>2010-01-01T00:00:00Z</time>
      </trkpt>
      <trkpt lat="48.58484" lon="1.59511">
        <ele>114</ele>
        <time>2010-01-01T00:00:00Z</time>
      </trkpt>
      <trkpt lat="48.58493" lon="1.59826">
        <ele>109</ele>
        <time>2010-01-01T00:00:00Z</time>
      </trkpt>
      <trkpt lat="48.58483" lon="1.59929">
        <ele>109</ele>
      </trkpt>
      <trkpt lat="48.58459" lon="1.6003">
        <ele>112</ele>
        <time>2010-01-01T00:00:00Z</time>
      </trkpt>
      <trkpt lat="48.58375" lon="1.60196">
        <ele>113</ele>
        <time>2010-01-01T00:00:00Z</time>
      </trkpt>
      <trkpt lat="48.58285" lon="1.60236">
        <ele>106</ele>
        <time>2010-01-01T00:00:00Z</time>
      </trkpt>
      <trkpt lat="48.582" lon="1.6028">
        <ele>106</ele>
      </trkpt>
      <trkpt lat="48.58099" lon="1.60297">
        <ele>106</ele>
        <time>2010-01-01T00:00:00Z</time>
      </trkpt>
      <trkpt lat="48.57562" lon="1.60125">
        <ele>106</ele>
      </trkpt>
      <trkpt lat="48.5704" lon="1.59974">
        <ele>108</ele>
        <time>2010-01-01T00:00:00Z</time>
      </trkpt>
      <trkpt lat="48.56975" lon="1.59968">
        <ele>105</ele>
      </trkpt>
      <trkpt lat="48.56938" lon="1.59996">
        <ele>105</ele>
      </trkpt>
      <trkpt lat="48.56838" lon="1.6009">
        <ele>106</ele>
        <time>2010-01-01T00:00:00Z</time>
      </trkpt>
      <trkpt lat="48.56764" lon="1.60149">
        <ele>104</ele>
      </trkpt>
      <trkpt lat="48.56707" lon="1.60221">
        <ele>104</ele>
        <time>2010-01-01T00:00:00Z</time>
      </trkpt>
      <trkpt lat="48.56662" lon="1.60339">
        <ele>107</ele>
      </trkpt>
      <trkpt lat="48.56638" lon="1.60456">
        <ele>109</ele>
        <time>2010-01-01T00:00:00Z</time>
      </trkpt>
      <trkpt lat="48.56557" lon="1.60749">
        <ele>107</ele>
        <time>2010-01-01T00:00:00Z</time>
      </trkpt>
      <trkpt lat="48.56602" lon="1.6105">
        <ele>110</ele>
        <time>2010-01-01T00:00:00Z</time>
      </trkpt>
      <trkpt lat="48.56626" lon="1.61266">
        <ele>109</ele>
        <time>2010-01-01T00:00:00Z</time>
      </trkpt>
      <trkpt lat="48.56585" lon="1.61526">
        <ele>107</ele>
        <time>2010-01-01T00:00:00Z</time>
      </trkpt>
      <trkpt lat="48.56566" lon="1.61633">
        <ele>106</ele>
      </trkpt>
      <trkpt lat="48.5651" lon="1.6174">
        <ele>110</ele>
        <time>2010-01-01T00:00:00Z</time>
      </trkpt>
      <trkpt lat="48.56443" lon="1.61922">
        <ele>110</ele>
        <time>2010-01-01T00:00:00Z</time>
      </trkpt>
      <trkpt lat="48.56276" lon="1.6199">
        <ele>109</ele>
        <time>2010-01-01T00:00:00Z</time>
      </trkpt>
      <trkpt lat="48.56183" lon="1.62067">
        <ele>107</ele>
      </trkpt>
      <trkpt lat="48.56021" lon="1.62285">
        <ele>108</ele>
        <time>2010-01-01T00:00:00Z</time>
      </trkpt>
      <trkpt lat="48.55883" lon="1.62473">
        <ele>113</ele>
        <time>2010-01-01T00:00:00Z</time>
      </trkpt>
      <trkpt lat="48.55806" lon="1.62531">
        <ele>114</ele>
      </trkpt>
      <trkpt lat="48.55636" lon="1.62564">
        <ele>113</ele>
        <time>2010-01-01T00:00:00Z</time>
      </trkpt>
      <trkpt lat="48.55489" lon="1.62589">
        <ele>112</ele>
        <time>2010-01-01T00:00:00Z</time>
      </trkpt>
      <trkpt lat="48.55426" lon="1.6258">
        <ele>110</ele>
      </trkpt>
      <trkpt lat="48.55353" lon="1.62364">
        <ele>109</ele>
      </trkpt>
      <trkpt lat="48.55433" lon="1.62243">
        <ele>110</ele>
        <time>2010-01-01T00:00:00Z</time>
      </trkpt>
      <trkpt lat="48.55281" lon="1.62085">
        <ele>112</ele>
        <time>2010-01-01T00:00:00Z</time>
      </trkpt>
      <trkpt lat="48.55187" lon="1.61898">
        <ele>115</ele>
        <time>2010-01-01T00:00:00Z</time>
      </trkpt>
      <trkpt lat="48.55096" lon="1.61721">
        <ele>125</ele>
        <time>2010-01-01T00:00:00Z</time>
      </trkpt>
      <trkpt lat="48.54961" lon="1.61484">
        <ele>142</ele>
        <time>2010-01-01T00:00:00Z</time>
      </trkpt>
      <trkpt lat="48.54701" lon="1.60692">
        <ele>133</ele>
        <time>2010-01-01T00:00:00Z</time>
      </trkpt>
      <trkpt lat="48.54495" lon="1.60108">
        <ele>136</ele>
        <time>2010-01-01T00:00:00Z</time>
      </trkpt>
      <trkpt lat="48.5439" lon="1.59877">
        <ele>141</ele>
        <time>2010-01-01T00:00:00Z</time>
      </trkpt>
      <trkpt lat="48.54279" lon="1.59654">
        <ele>151</ele>
        <time>2010-01-01T00:00:00Z</time>
      </trkpt>
      <trkpt lat="48.54088" lon="1.59456">
        <ele>152</ele>
        <time>2010-01-01T00:00:00Z</time>
      </trkpt>
      <trkpt lat="48.54164" lon="1.59184">
        <ele>136</ele>
        <time>2010-01-01T00:00:00Z</time>
      </trkpt>
      <trkpt lat="48.54284" lon="1.5906">
        <ele>120</ele>
        <time>2010-01-01T00:00:00Z</time>
      </trkpt>
      <trkpt lat="48.54355" lon="1.58865">
        <ele>108</ele>
        <time>2010-01-01T00:00:00Z</time>
      </trkpt>
      <trkpt lat="48.54435" lon="1.58677">
        <ele>107</ele>
        <time>2010-01-01T00:00:00Z</time>
      </trkpt>
      <trkpt lat="48.54531" lon="1.58408">
        <ele>110</ele>
      </trkpt>
      <trkpt lat="48.54628" lon="1.58433">
        <ele>108</ele>
        <time>2010-01-01T00:00:00Z</time>
      </trkpt>
      <trkpt lat="48.54734" lon="1.58466">
        <ele>108</ele>
      </trkpt>
      <trkpt lat="48.54761" lon="1.58371">
        <ele>109</ele>
      </trkpt>
      <trkpt lat="48.54855" lon="1.58408">
        <ele>109</ele>
        <time>2010-01-01T00:00:00Z</time>
      </trkpt>
      <trkpt lat="48.54931" lon="1.58414">
        <ele>109</ele>
      </trkpt>
      <trkpt lat="48.54933" lon="1.58479">
        <ele>107</ele>
        <time>2010-01-01T00:00:00Z</time>
      </trkpt>
      <trkpt lat="48.5511" lon="1.58524">
        <ele>103</ele>
        <time>2010-01-01T00:00:00Z</time>
      </trkpt>
      <trkpt lat="48.55278" lon="1.58477">
        <ele>104</ele>
        <time>2010-01-01T00:00:00Z</time>
      </trkpt>
      <trkpt lat="48.5543" lon="1.58479">
        <ele>104</ele>
        <time>2010-01-01T00:00:00Z</time>
      </trkpt>
      <trkpt lat="48.5558" lon="1.58496">
        <ele>105</ele>
        <time>2010-01-01T00:00:00Z</time>
      </trkpt>
      <trkpt lat="48.55707" lon="1.58521">
        <ele>106</ele>
      </trkpt>
      <trkpt lat="48.55734" lon="1.58165">
        <ele>116</ele>
        <time>2010-01-01T00:00:00Z</time>
      </trkpt>
      <trkpt lat="48.55828" lon="1.58202">
        <ele>114</ele>
      </trkpt>
      <trkpt lat="48.55898" lon="1.58212">
        <ele>116</ele>
      </trkpt>
      <trkpt lat="48.55932" lon="1.5821">
        <ele>117</ele>
      </trkpt>
      <trkpt lat="48.55844" lon="1.58152">
        <ele>124</ele>
      </trkpt>
      <trkpt lat="48.55801" lon="1.58088">
        <ele>125</ele>
      </trkpt>
      <trkpt lat="48.55799" lon="1.58008">
        <ele>134</ele>
      </trkpt>
      <trkpt lat="48.55882" lon="1.57981">
        <ele>141</ele>
      </trkpt>
      <trkpt lat="48.55884" lon="1.57915">
        <ele>141</ele>
      </trkpt>
      <trkpt lat="48.55885" lon="1.57851">
        <ele>142</ele>
      </trkpt>
      <trkpt lat="48.55874" lon="1.57819">
        <ele>143</ele>
      </trkpt>
      <trkpt lat="48.55824" lon="1.57797">
        <ele>142</ele>
      </trkpt>
      <trkpt lat="48.55796" lon="1.57692">
        <ele>144</ele>
      </trkpt>
      <trkpt lat="48.55835" lon="1.57665">
        <ele>145</ele>
      </trkpt>
      <trkpt lat="48.55882" lon="1.57566">
        <ele>145</ele>
      </trkpt>
      <trkpt lat="48.55928" lon="1.57534">
        <ele>144</ele>
      </trkpt>
      <trkpt lat="48.5597" lon="1.57491">
        <ele>141</ele>
      </trkpt>
      <trkpt lat="48.55983" lon="1.57489">
        <ele>141</ele>
      </trkpt>
      <trkpt lat="48.56002" lon="1.57503">
        <ele>141</ele>
      </trkpt>
      <trkpt lat="48.56032" lon="1.57545">
        <ele>141</ele>
      </trkpt>
      <trkpt lat="48.56095" lon="1.57641">
        <ele>141</ele>
      </trkpt>
      <trkpt lat="48.56164" lon="1.57838">
        <ele>140</ele>
      </trkpt>
      <trkpt lat="48.56255" lon="1.57965">
        <ele>133</ele>
      </trkpt>
      <trkpt lat="48.56268" lon="1.58197">
        <ele>119</ele>
      </trkpt>
      <trkpt lat="48.56397" lon="1.58259">
        <ele>112</ele>
      </trkpt>
      <trkpt lat="48.56463" lon="1.58289">
        <ele>112</ele>
      </trkpt>
      <trkpt lat="48.56526" lon="1.58245">
        <ele>117</ele>
        <time>2010-01-01T00:00:00Z</time>
      </trkpt>
      <trkpt lat="48.56566" lon="1.58424">
        <ele>106</ele>
        <time>2010-01-01T00:00:00Z</time>
      </trkpt>
      <trkpt lat="48.56602" lon="1.58555">
        <ele>105</ele>
      </trkpt>
      <trkpt lat="48.5667" lon="1.58553">
        <ele>105</ele>
        <time>2010-01-01T00:00:00Z</time>
      </trkpt>
      <trkpt lat="48.56646" lon="1.5881">
        <ele>103</ele>
        <time>2010-01-01T00:00:00Z</time>
      </trkpt>
      <trkpt lat="48.56803" lon="1.58886">
        <ele>101</ele>
      </trkpt>
      <trkpt lat="48.56968" lon="1.59048">
        <ele>105</ele>
      </trkpt>
      <trkpt lat="48.57033" lon="1.58912">
        <ele>104</ele>
        <time>2010-01-01T00:00:00Z</time>
      </trkpt>
      <trkpt lat="48.57167" lon="1.58868">
        <ele>104</ele>
        <time>2010-01-01T00:00:00Z</time>
      </trkpt>
      <trkpt lat="48.57269" lon="1.58863">
        <ele>103</ele>
      </trkpt>
      <trkpt lat="48.57371" lon="1.58776">
        <ele>104</ele>
        <time>2010-01-01T00:00:00Z</time>
      </trkpt>
      <trkpt lat="48.57333" lon="1.58485">
        <ele>104</ele>
        <time>2010-01-01T00:00:00Z</time>
      </trkpt>
      <trkpt lat="48.57466" lon="1.58432">
        <ele>102</ele>
      </trkpt>
      <trkpt lat="48.57528" lon="1.58424">
        <ele>102</ele>
      </trkpt>
      <trkpt lat="48.57572" lon="1.58402">
        <ele>103</ele>
      </trkpt>
      <trkpt lat="48.57624" lon="1.5839">
        <ele>103</ele>
      </trkpt>
      <trkpt lat="48.57648" lon="1.58389">
        <ele>103</ele>
        <time>2010-01-01T00:00:00Z</time>
      </trkpt>
      <trkpt lat="48.57676" lon="1.58461">
        <ele>105</ele>
      </trkpt>
      <trkpt lat="48.57694" lon="1.58507">
        <ele>105</ele>
      </trkpt>
      <trkpt lat="48.5772" lon="1.58537">
        <ele>105</ele>
      </trkpt>
      <trkpt lat="48.57748" lon="1.58537">
        <ele>105</ele>
      </trkpt>
      <trkpt lat="48.57784" lon="1.5852">
        <ele>105</ele>
        <time>2010-01-01T00:00:00Z</time>
      </trkpt>
      <trkpt lat="48.57816" lon="1.58507">
        <ele>105</ele>
      </trkpt>
      <trkpt lat="48.57847" lon="1.58506">
        <ele>106</ele>
      </trkpt>
      <trkpt lat="48.57892" lon="1.58705">
        <ele>103</ele>
        <time>2010-01-01T00:00:00Z</time>
      </trkpt>
      <trkpt lat="48.57908" lon="1.58794">
        <ele>102</ele>
      </trkpt>
      <trkpt lat="48.57984" lon="1.58787">
        <ele>104</ele>
        <time>2010-01-01T00:00:00Z</time>
      </trkpt>
      <trkpt lat="48.58002" lon="1.58919">
        <ele>103</ele>
      </trkpt>
      <trkpt lat="48.58006" lon="1.59058">
        <ele>105</ele>
        <time>2010-01-01T00:00:00Z</time>
      </trkpt>
      <trkpt lat="48.58091" lon="1.5911">
        <ele>105</ele>
      </trkpt>
      <trkpt lat="48.58132" lon="1.59094">
        <ele>105</ele>
      </trkpt>
      <trkpt lat="48.58247" lon="1.5904">
        <ele>106</ele>
      </trkpt>
      <trkpt lat="48.58626" lon="1.58692">
        <ele>114</ele>
      </trkpt>
      <trkpt lat="48.58683" lon="1.58527">
        <ele>110</ele>
      </trkpt>
      <trkpt lat="48.58708" lon="1.58323">
        <ele>108</ele>
      </trkpt>
      <trkpt lat="48.58703" lon="1.58268">
        <ele>108</ele>
      </trkpt>
      <trkpt lat="48.58795" lon="1.58049">
        <ele>102</ele>
      </trkpt>
      <trkpt lat="48.58855" lon="1.57967">
        <ele>103</ele>
      </trkpt>
      <trkpt lat="48.58815" lon="1.57774">
        <ele>102.8</ele>
      </trkpt>
      <trkpt lat="48.58897" lon="1.57759">
        <ele>103</ele>
      </trkpt>
      <trkpt lat="48.58941" lon="1.57804">
        <ele>102</ele>
      </trkpt>
      <trkpt lat="48.59073" lon="1.57748">
        <ele>103</ele>
      </trkpt>
      <trkpt lat="48.59333" lon="1.57611">
        <ele>101</ele>
      </trkpt>
      <trkpt lat="48.58921" lon="1.57849">
        <ele>102.4</ele>
      </trkpt>
      <trkpt lat="48.58957" lon="1.57959">
        <ele>102</ele>
      </trkpt>
      <trkpt lat="48.58883" lon="1.58107">
        <ele>102.2</ele>
      </trkpt>
      <trkpt lat="48.58751" lon="1.58441">
        <ele>106.7</ele>
      </trkpt>
      <trkpt lat="48.58663" lon="1.58626">
        <ele>112</ele>
      </trkpt>
      <trkpt lat="48.58578" lon="1.58765">
        <ele>113</ele>
      </trkpt>
      <trkpt lat="48.58385" lon="1.58954">
        <ele>111.5</ele>
      </trkpt>
    </trkseg>
  </trk>
</gpx>